Simultaneous Nadir Overpasses (SNOs) Predictions

Prediction of SNOs over PacNW region [( 10.00, 139.50) to ( 22.70, 165.60)] between NOAA-19 and NPP Satellites:

Table of predicted SNOs over PacNW region for the next 30.0 days since TLE Epoch: 9/26/2014
Index Date (NOAA-19) Time (NOAA-19) NOAA-19 Lat,Lon Date (NPP) Time (NPP) NPP Lat,Lon Distance(km) Time Diff (sec)
1 09/27/2014 04:20:28 22.67, 140.20 09/27/2014 04:20:01 21.64, 134.88 559.45 27
2 09/27/2014 15:14:26 10.05, 162.06 09/27/2014 15:10:50 9.55, 157.13 542.43 216
3 10/10/2014 03:36:46 22.68, 151.28 10/10/2014 03:35:39 21.64, 146.00 556.04 67
4 10/23/2014 02:52:55 22.67, 162.40 10/23/2014 02:51:15 21.65, 157.12 555.32 100




NCC Satellite Simultaneous Nadir Overpasses (SNOs) Prediction Service
